Tracking 30995 objects as of 5-Jul-2025
HD Live streaming from Space Station
objects crossing your sky now

YUNHAI 3

Track YUNHAI 3 now!
10-day predictions


NORAD ID: 54235
Int'l Code: 2022-151A
Perigee: 853.8 km
Apogee: 855.8 km
Inclination: 98.8 °
Period: 101.9 minutes
Semi major axis: 7225 km
RCS: Unknown
Launch date: November 11, 2022
Source: People's Republic of China (PRC)
Launch site: Taiyaun Space Center, China (TSC)
Your satellite tracking list
Your tracking list is empty




NASA's NSSDC Master Catalog

Two Line Element Set (TLE):
1 54235U 22151A   25186.62251608 -.00000010  00000-0  18121-4 0  9991
2 54235  98.8176 193.9118 0001403  49.8963 310.2332 14.13432319135980
Source of the keplerian elements: AFSPC